Weather in Kurasovka

Russia / Belgorod Oblast     51°03′58″N   36°13′01″E
temp.,
°C
wind,
m/s
gust,
m/s
humid.,
%
clouds,
%
prec.,
mm/h
press.,
hPa
HPBL,
m
16 october, sat
sat1600:00+5ssw33696 0.0 102329
03:00+4s337062 0.0 102236
06:00+3s346848 0.0 102261
09:00+7s47566 0.0 1021200
12:00+13ssw564392 0.0 1020860
15:00+13sw4542100 0.0 1018944
18:00+11w2351100 0.0 101856
21:00+9wnw2456100 0.0 1018116
17 october, sun
sun1700:00+9w2463100 0.0 1018161
03:00+6nw338620 0.0 101865
06:00+5nnw229235 0.0 101917
09:00+7nw228043 0.0 1019159
12:00+12wnw33606 0.0 1018740
15:00+13wnw44485 0.0 10171193
18:00+9wnw33655 0.0 101743
21:00+6wnw348070 0.0 101857
18 october, mon
mon1800:00+5nw338936 0.0 101837
03:00+4wnw229080 0.0 101824
06:00+3w3391100 0.0 101847
09:00+6w3572100 0.0 1018213
12:00+10w454987 0.0 10171019
15:00+11w5746100 0.0 10161574
18:00+9w4855100 0.0 1016504
21:00+8w4865100 0.0 1016688
19 october, tue
tue1900:00+8w4770100 0.1 1015863
03:00+7wnw4779100 0.2 1015824
06:00+5nnw378232 0.0 1016350
09:00+5nw47750 0.0 1018369
12:00+8nw67420 0.0 10181287
15:00+8nw7847100 0.0 10181897
18:00+3nnw6106925 0.1 1021610
21:00+3nnw6107312 0.1 1022714
20 october, wed
wed2000:00+3nw5870100 0.0 10231037
03:00+3nw4871100 0.1 1024572
06:00+2nw487380 0.1 1026382
09:00+2wnw3571100 0.1 1027267
12:00+6wnw34468 0.0 10271246
15:00+7w454235 0.0 10261428
18:00+4sw355397 0.0 102681
21:00+3ssw3859100 0.0 1025159